[Date Prev][Date Next][Thread Prev][Thread Next] - [Date Index][Thread Index][Author Index]
2 Line ISS Keps 7-15
- Subject: [sarex] 2 Line ISS Keps 7-15
- From: "Dave Larsen PhD" <doc@xxxxxxxxxxx>
- Date: Thu, 15 Jul 2004 05:13:22 -0700
ISS
1 25544U 98067A 04197.37177242 .00009661 00000-0 84338-4 0 2214
2 25544 51.6301 181.9680 0006169 7.1879 144.7500 15.69717842322744
----
Via the sarex mailing list at AMSAT.ORG courtesy of AMSAT-NA.
To unsubscribe, send "unsubscribe sarex" to Majordomo@amsat.org
AMSAT Home